Meteo Giornale » Osservazioni meteo Austria » Klagenfurt

ore: 13:20 - Osservazioni Meteo Klagenfurt
Lat. 46° 39' N Lon. 14° 20' E Alt. 448 metri s.l.m.

poco_nuvoloso Europe/Vienna

13 °C

Poco Nuvoloso

Temp. 24 Ore

5 °C

13 °C

Nord

3.7 Km/h

Dew point 6 °C

Umidità 62 %

Visibilità  10 Km

Il sole sorge alle ore 06:37

Il sole tramonta alle ore 16:54

Data e Ora Cielo e Fenomeni T °C DP °C Um. % Pres. hPa Vis. km Vento km/h
Oggi h: 13:20 poco_nuvoloso Poco Nuvoloso 13 6 62 1017 10 N 3.7
Oggi h: 12:50 nuvoloso Nuvoloso 13 6 62 1018 10 N 3.7
Oggi h: 12:20 nuvoloso Nuvoloso 12 6 66 1018 10 N 5.5
Oggi h: 11:50 nuvoloso Nuvoloso 12 6 66 1018 10 N 1.8
Oggi h: 11:20 nuvoloso Nuvoloso 10 5 71 1018 10 N 3.7
Oggi h: 10:50 nuvoloso Nuvoloso 10 6 76 1018 10 N 5.5
Oggi h: 10:20 poco_nuvoloso Poco Nuvoloso 9 6 81 1018 10 N 3.7
Oggi h: 09:50 poco_nuvoloso Poco Nuvoloso 10 6 76 1018 10 N 3.7
Oggi h: 09:20 nuvoloso Nuvoloso 9 6 81 1018 10 N 5.5
Oggi h: 08:50 nuvoloso Nuvoloso 8 6 87 1018 10 O/NO 7.4
Oggi h: 07:50 nuvoloso Nuvoloso 6 6 100 1017 10 N 5.5
Oggi h: 07:20 nebbia Banco di Nebbia Nebbia a Strati 5 5 100 1017 1 O/NO 7.4
Oggi h: 06:50 nebbia Nebbia a Strati 6 5 93 1017 10 N 5.5
Oggi h: 06:20 nebbia Nebbia a Strati 6 5 93 1017 10 N 3.7
Oggi h: 05:50 nuvoloso Nuvoloso 5 5 100 1017 10 N 3.7
Oggi h: 05:20 poco_nuvoloso Poco Nuvoloso 6 5 93 1017 10 N 3.7
Oggi h: 04:50 molto_nuvoloso Molto Nuvoloso 6 5 93 1017 10 N 3.7
Oggi h: 04:20 foschia Foschia 6 5 93 1016 4 N 3.7
Oggi h: 03:50 nuvoloso Nuvoloso 6 6 100 1016 10 N 5.5
Oggi h: 03:20 foschia Foschia 7 6 93 1016 3 N 3.7
Oggi h: 02:50 poco_nuvoloso Poco Nuvoloso 7 6 93 1016 10 N 1.8
Oggi h: 02:20 foschia Foschia 7 6 93 1016 4 N 5.5
Oggi h: 01:50 nuvoloso Nuvoloso 8 7 93 1016 10 N 5.5
Oggi h: 01:20 nuvoloso Nuvoloso 8 7 93 1016 10 N 3.7
Oggi h: 00:50 molto_nuvoloso Molto Nuvoloso 8 7 93 1016 10 N 3.7
Oggi h: 00:20 molto_nuvoloso Molto Nuvoloso 9 7 87 1016 10 O/NO 7.4
Ieri h: 23:50 molto_nuvoloso Molto Nuvoloso 9 8 93 1016 10 N 5.5
Ieri h: 23:20 molto_nuvoloso Molto Nuvoloso 9 8 93 1016 10 N 3.7
Ieri h: 22:50 molto_nuvoloso Molto Nuvoloso 9 8 93 1016 10 N/NO 7.4
Ieri h: 22:20 molto_nuvoloso Molto Nuvoloso 10 9 93 1016 10 N 5.5
Ieri h: 21:50 molto_nuvoloso Molto Nuvoloso 10 9 93 1015 8 N 1.8
Ieri h: 21:20 molto_nuvoloso Molto Nuvoloso 10 9 93 1015 10 N 3.7
Ieri h: 20:50 molto_nuvoloso Molto Nuvoloso 10 9 93 1015 10 N 1.8
Ieri h: 20:20 molto_nuvoloso Molto Nuvoloso 10 9 93 1015 10 N 1.8
Ieri h: 19:50 molto_nuvoloso Molto Nuvoloso 10 9 93 1014 10 N 1.8
Ieri h: 19:20 molto_nuvoloso Molto Nuvoloso 10 8 87 1014 10 N 1.8
Ieri h: 18:50 molto_nuvoloso Molto Nuvoloso 10 9 93 1014 10 N 1.8
Ieri h: 18:20 molto_nuvoloso Molto Nuvoloso 10 9 93 1014 10 N 3.7
Ieri h: 16:50 molto_nuvoloso Molto Nuvoloso 10 8 87 1012 10 N 3.7
Ieri h: 16:20 molto_nuvoloso Molto Nuvoloso 10 8 87 1012 10 N 5.5
Ieri h: 15:50 molto_nuvoloso Molto Nuvoloso 10 8 87 1012 10 N 3.7
Ieri h: 15:20 molto_nuvoloso Molto Nuvoloso 10 7 81 1011 10 N 3.7
Ieri h: 14:50 molto_nuvoloso Molto Nuvoloso 10 8 87 1012 10 N 5.5
Ieri h: 14:20 molto_nuvoloso Molto Nuvoloso 10 8 87 1011 10 N 5.5
Ieri h: 13:50 molto_nuvoloso Molto Nuvoloso 10 8 87 1011 10 O/SO 9.3